owner,sensor,date,latitude,longitude,mass_concentration_of_chlorophyll_in_sea_water,qcFlag 
SCCF RECON,ioos:station:SCCF:12:1,2008-10-09T15:00:00Z,26.4966,-82.1479,5.58,1111122 
SCCF RECON,ioos:station:SCCF:12:1,2008-10-09T16:00:00Z,26.4966,-82.1479,5.67,1111122 
SCCF RECON,ioos:station:SCCF:12:1,2008-10-09T17:00:00Z,26.4966,-82.1479,5.85,1111122 
SCCF RECON,ioos:station:SCCF:12:1,2008-10-09T18:00:00Z,26.4966,-82.1479,5.84,1111122 
SCCF RECON,ioos:station:SCCF:12:1,2008-10-09T19:00:00Z,26.4966,-82.1479,4.66,1111122 
SCCF RECON,ioos:station:SCCF:12:1,2008-10-09T20:00:00Z,26.4966,-82.1479,5.58,1111122 
SCCF RECON,ioos:station:SCCF:12:1,2008-10-09T21:00:00Z,26.4966,-82.1479,5.5,1111122 
SCCF RECON,ioos:station:SCCF:12:1,2008-10-09T22:00:00Z,26.4966,-82.1479,5.91,1111122 
SCCF RECON,ioos:station:SCCF:12:1,2008-10-09T23:00:00Z,26.4966,-82.1479,5.86,1111122 
SCCF RECON,ioos:station:SCCF:12:1,2008-10-10T00:00:00Z,26.4966,-82.1479,6.64,1111122 
SCCF RECON,ioos:station:SCCF:12:1,2008-10-10T01:00:00Z,26.4966,-82.1479,5.81,1111122 
SCCF RECON,ioos:station:SCCF:12:1,2008-10-10T02:00:00Z,26.4966,-82.1479,6.73,1111122 
SCCF RECON,ioos:station:SCCF:12:1,2008-10-10T03:00:00Z,26.4966,-82.1479,8.18,1111122 
SCCF RECON,ioos:station:SCCF:12:1,2008-10-10T04:00:00Z,26.4966,-82.1479,7.52,1111122 
SCCF RECON,ioos:station:SCCF:12:1,2008-10-10T05:00:00Z,26.4966,-82.1479,6.2,1111122 
SCCF RECON,ioos:station:SCCF:12:1,2008-10-10T06:00:00Z,26.4966,-82.1479,3.68,1111122 
SCCF RECON,ioos:station:SCCF:12:1,2008-10-10T07:00:00Z,26.4966,-82.1479,3.27,1111122 
SCCF RECON,ioos:station:SCCF:12:1,2008-10-10T08:00:00Z,26.4966,-82.1479,3.7,1111122 
SCCF RECON,ioos:station:SCCF:12:1,2008-10-10T09:00:00Z,26.4966,-82.1479,4.28,1111122 
SCCF RECON,ioos:station:SCCF:12:1,2008-10-10T10:00:00Z,26.4966,-82.1479,4.21,1111122 
SCCF RECON,ioos:station:SCCF:12:1,2008-10-10T11:00:00Z,26.4966,-82.1479,5.16,1111122 
SCCF RECON,ioos:station:SCCF:12:1,2008-10-10T12:00:00Z,26.4966,-82.1479,5.98,1111122 
SCCF RECON,ioos:station:SCCF:12:1,2008-10-10T13:00:00Z,26.4966,-82.1479,4.86,1111122 
SCCF RECON,ioos:station:SCCF:12:1,2008-10-10T14:00:00Z,26.4966,-82.1479,5.32,1111122 
SCCF RECON,ioos:station:SCCF:12:1,2008-10-10T15:00:00Z,26.4966,-82.1479,5.68,1111122 
SCCF RECON,ioos:station:SCCF:12:1,2008-10-10T16:00:00Z,26.4966,-82.1479,6.34,1111122 
SCCF RECON,ioos:station:SCCF:12:1,2008-10-10T17:00:00Z,26.4966,-82.1479,6.83,1111122 
SCCF RECON,ioos:station:SCCF:12:1,2008-10-10T18:00:00Z,26.4966,-82.1479,8.0,1111122 
SCCF RECON,ioos:station:SCCF:12:1,2008-10-10T19:00:00Z,26.4966,-82.1479,4.9,1111122 
SCCF RECON,ioos:station:SCCF:12:1,2008-10-10T20:00:00Z,26.4966,-82.1479,5.11,1111122 
SCCF RECON,ioos:station:SCCF:12:1,2008-10-10T21:00:00Z,26.4966,-82.1479,5.65,1111122 
SCCF RECON,ioos:station:SCCF:12:1,2008-10-10T22:00:00Z,26.4966,-82.1479,6.62,1111122 
SCCF RECON,ioos:station:SCCF:12:1,2008-10-10T23:00:00Z,26.4966,-82.1479,6.81,1111122 
SCCF RECON,ioos:station:SCCF:12:1,2008-10-11T00:00:00Z,26.4966,-82.1479,10.15,1111122 
SCCF RECON,ioos:station:SCCF:12:1,2008-10-11T01:00:00Z,26.4966,-82.1479,10.03,1111122 
SCCF RECON,ioos:station:SCCF:12:1,2008-10-11T02:00:00Z,26.4966,-82.1479,9.97,1111122 
SCCF RECON,ioos:station:SCCF:12:1,2008-10-11T03:00:00Z,26.4966,-82.1479,10.36,1111122 
SCCF RECON,ioos:station:SCCF:12:1,2008-10-11T04:00:00Z,26.4966,-82.1479,10.55,1111122 
SCCF RECON,ioos:station:SCCF:12:1,2008-10-11T05:00:00Z,26.4966,-82.1479,10.27,1111122 
SCCF RECON,ioos:station:SCCF:12:1,2008-10-11T06:00:00Z,26.4966,-82.1479,11.97,1111122 
SCCF RECON,ioos:station:SCCF:12:1,2008-10-11T07:00:00Z,26.4966,-82.1479,10.08,1111122 
SCCF RECON,ioos:station:SCCF:12:1,2008-10-11T08:00:00Z,26.4966,-82.1479,12.13,1111122 
SCCF RECON,ioos:station:SCCF:12:1,2008-10-11T09:00:00Z,26.4966,-82.1479,11.54,1111122 
SCCF RECON,ioos:station:SCCF:12:1,2008-10-11T10:00:00Z,26.4966,-82.1479,11.44,1111122 
SCCF RECON,ioos:station:SCCF:12:1,2008-10-11T11:00:00Z,26.4966,-82.1479,4.86,1111122 
SCCF RECON,ioos:station:SCCF:12:1,2008-10-11T12:00:00Z,26.4966,-82.1479,9.86,1111122 
SCCF RECON,ioos:station:SCCF:12:1,2008-10-11T13:00:00Z,26.4966,-82.1479,8.62,1111122 
SCCF RECON,ioos:station:SCCF:12:1,2008-10-11T14:00:00Z,26.4966,-82.1479,8.68,1111122 
SCCF RECON,ioos:station:SCCF:12:1,2008-10-11T15:00:00Z,26.4966,-82.1479,8.68,1111122 
SCCF RECON,ioos:station:SCCF:12:1,2008-10-11T16:00:00Z,26.4966,-82.1479,9.11,1111122 
SCCF RECON,ioos:station:SCCF:12:1,2008-10-11T17:00:00Z,26.4966,-82.1479,9.38,1111122 
SCCF RECON,ioos:station:SCCF:12:1,2008-10-11T18:00:00Z,26.4966,-82.1479,11.21,1111122 
SCCF RECON,ioos:station:SCCF:12:1,2008-10-11T19:00:00Z,26.4966,-82.1479,10.49,1111122 
SCCF RECON,ioos:station:SCCF:12:1,2008-10-11T20:00:00Z,26.4966,-82.1479,11.42,1111122 
SCCF RECON,ioos:station:SCCF:12:1,2008-10-11T21:00:00Z,26.4966,-82.1479,11.61,1111122 
SCCF RECON,ioos:station:SCCF:12:1,2008-10-11T22:00:00Z,26.4966,-82.1479,11.13,1111122 
SCCF RECON,ioos:station:SCCF:12:1,2008-10-11T23:00:00Z,26.4966,-82.1479,11.27,1111122 
SCCF RECON,ioos:station:SCCF:12:1,2008-10-12T00:00:00Z,26.4966,-82.1479,12.51,1111122 
SCCF RECON,ioos:station:SCCF:12:1,2008-10-12T01:00:00Z,26.4966,-82.1479,19.52,1111122 
SCCF RECON,ioos:station:SCCF:12:1,2008-10-12T02:00:00Z,26.4966,-82.1479,7.98,1111122 
SCCF RECON,ioos:station:SCCF:12:1,2008-10-12T03:00:00Z,26.4966,-82.1479,9.12,1111122 
SCCF RECON,ioos:station:SCCF:12:1,2008-10-12T04:00:00Z,26.4966,-82.1479,9.34,1111122 
SCCF RECON,ioos:station:SCCF:12:1,2008-10-12T05:00:00Z,26.4966,-82.1479,10.56,1111122 
SCCF RECON,ioos:station:SCCF:12:1,2008-10-12T06:00:00Z,26.4966,-82.1479,9.2,1111122 
SCCF RECON,ioos:station:SCCF:12:1,2008-10-12T07:00:00Z,26.4966,-82.1479,9.69,1111122 
SCCF RECON,ioos:station:SCCF:12:1,2008-10-12T08:00:00Z,26.4966,-82.1479,8.47,1111122 
SCCF RECON,ioos:station:SCCF:12:1,2008-10-12T09:00:00Z,26.4966,-82.1479,8.43,1111122 
SCCF RECON,ioos:station:SCCF:12:1,2008-10-12T10:00:00Z,26.4966,-82.1479,8.79,1111122 
SCCF RECON,ioos:station:SCCF:12:1,2008-10-12T11:00:00Z,26.4966,-82.1479,7.22,1111122 
SCCF RECON,ioos:station:SCCF:12:1,2008-10-12T12:00:00Z,26.4966,-82.1479,8.31,1111122 
SCCF RECON,ioos:station:SCCF:12:1,2008-10-12T13:00:00Z,26.4966,-82.1479,8.32,1111122 
SCCF RECON,ioos:station:SCCF:12:1,2008-10-12T14:00:00Z,26.4966,-82.1479,8.65,1111122 
SCCF RECON,ioos:station:SCCF:12:1,2008-10-12T15:00:00Z,26.4966,-82.1479,9.07,1111122 
SCCF RECON,ioos:station:SCCF:12:1,2008-10-12T16:00:00Z,26.4966,-82.1479,8.99,1111122 
SCCF RECON,ioos:station:SCCF:12:1,2008-10-12T17:00:00Z,26.4966,-82.1479,8.37,1111122 
SCCF RECON,ioos:station:SCCF:12:1,2008-10-12T18:00:00Z,26.4966,-82.1479,9.2,1111122 
SCCF RECON,ioos:station:SCCF:12:1,2008-10-12T19:00:00Z,26.4966,-82.1479,9.09,1111122 
SCCF RECON,ioos:station:SCCF:12:1,2008-10-12T20:00:00Z,26.4966,-82.1479,8.88,1111122 
SCCF RECON,ioos:station:SCCF:12:1,2008-10-12T21:00:00Z,26.4966,-82.1479,9.55,1111122 
SCCF RECON,ioos:station:SCCF:12:1,2008-10-12T22:00:00Z,26.4966,-82.1479,9.42,1111122 
SCCF RECON,ioos:station:SCCF:12:1,2008-10-12T23:00:00Z,26.4966,-82.1479,9.91,1111122 
SCCF RECON,ioos:station:SCCF:12:1,2008-10-13T00:00:00Z,26.4966,-82.1479,5.56,1111122 
SCCF RECON,ioos:station:SCCF:12:1,2008-10-13T01:00:00Z,26.4966,-82.1479,11.34,1111122 
SCCF RECON,ioos:station:SCCF:12:1,2008-10-13T02:00:00Z,26.4966,-82.1479,9.21,1111122 
SCCF RECON,ioos:station:SCCF:12:1,2008-10-13T03:00:00Z,26.4966,-82.1479,9.56,1111122 
SCCF RECON,ioos:station:SCCF:12:1,2008-10-13T04:00:00Z,26.4966,-82.1479,9.63,1111122 
SCCF RECON,ioos:station:SCCF:12:1,2008-10-13T05:00:00Z,26.4966,-82.1479,10.16,1111122 
SCCF RECON,ioos:station:SCCF:12:1,2008-10-13T06:00:00Z,26.4966,-82.1479,9.09,1111122 
SCCF RECON,ioos:station:SCCF:12:1,2008-10-13T07:00:00Z,26.4966,-82.1479,7.78,1111122 
SCCF RECON,ioos:station:SCCF:12:1,2008-10-13T08:00:00Z,26.4966,-82.1479,7.24,1111122 
SCCF RECON,ioos:station:SCCF:12:1,2008-10-13T09:00:00Z,26.4966,-82.1479,7.63,1111122 
SCCF RECON,ioos:station:SCCF:12:1,2008-10-13T10:00:00Z,26.4966,-82.1479,7.5,1111122 
SCCF RECON,ioos:station:SCCF:12:1,2008-10-13T11:00:00Z,26.4966,-82.1479,1.22,1111122 
SCCF RECON,ioos:station:SCCF:12:1,2008-10-13T12:00:00Z,26.4966,-82.1479,7.38,1111122 
SCCF RECON,ioos:station:SCCF:12:1,2008-10-13T13:00:00Z,26.4966,-82.1479,7.07,1111122 
SCCF RECON,ioos:station:SCCF:12:1,2008-10-13T14:00:00Z,26.4966,-82.1479,7.18,1111122 
SCCF RECON,ioos:station:SCCF:12:1,2008-10-13T15:00:00Z,26.4966,-82.1479,7.33,1111122 
SCCF RECON,ioos:station:SCCF:12:1,2008-10-13T16:00:00Z,26.4966,-82.1479,7.97,1111122 
SCCF RECON,ioos:station:SCCF:12:1,2008-10-13T17:00:00Z,26.4966,-82.1479,8.24,1111122 
SCCF RECON,ioos:station:SCCF:12:1,2008-10-13T18:00:00Z,26.4966,-82.1479,8.25,1111122 
SCCF RECON,ioos:station:SCCF:12:1,2008-10-13T19:00:00Z,26.4966,-82.1479,7.96,1111122 
SCCF RECON,ioos:station:SCCF:12:1,2008-10-13T20:00:00Z,26.4966,-82.1479,7.62,1111122 
SCCF RECON,ioos:station:SCCF:12:1,2008-10-13T21:00:00Z,26.4966,-82.1479,8.32,1111122 
SCCF RECON,ioos:station:SCCF:12:1,2008-10-13T22:00:00Z,26.4966,-82.1479,7.96,1111122 
SCCF RECON,ioos:station:SCCF:12:1,2008-10-13T23:00:00Z,26.4966,-82.1479,8.7,1111122 
SCCF RECON,ioos:station:SCCF:12:1,2008-10-14T00:00:00Z,26.4966,-82.1479,10.85,1111122 
SCCF RECON,ioos:station:SCCF:12:1,2008-10-14T01:00:00Z,26.4966,-82.1479,10.8,1111122 
SCCF RECON,ioos:station:SCCF:12:1,2008-10-14T02:00:00Z,26.4966,-82.1479,9.8,1111122 
SCCF RECON,ioos:station:SCCF:12:1,2008-10-14T03:00:00Z,26.4966,-82.1479,9.04,1111122 
SCCF RECON,ioos:station:SCCF:12:1,2008-10-14T04:00:00Z,26.4966,-82.1479,7.46,1111122 
SCCF RECON,ioos:station:SCCF:12:1,2008-10-14T05:00:00Z,26.4966,-82.1479,7.15,1111122 
SCCF RECON,ioos:station:SCCF:12:1,2008-10-14T06:00:00Z,26.4966,-82.1479,7.4,1111122 
SCCF RECON,ioos:station:SCCF:12:1,2008-10-14T07:00:00Z,26.4966,-82.1479,6.71,1111122 
SCCF RECON,ioos:station:SCCF:12:1,2008-10-14T08:00:00Z,26.4966,-82.1479,6.61,1111122 
SCCF RECON,ioos:station:SCCF:12:1,2008-10-14T09:00:00Z,26.4966,-82.1479,7.38,1111122 
SCCF RECON,ioos:station:SCCF:12:1,2008-10-14T10:00:00Z,26.4966,-82.1479,8.05,1111122 
SCCF RECON,ioos:station:SCCF:12:1,2008-10-14T11:00:00Z,26.4966,-82.1479,9.1,1111122 
SCCF RECON,ioos:station:SCCF:12:1,2008-10-14T12:00:00Z,26.4966,-82.1479,7.19,1111122 
SCCF RECON,ioos:station:SCCF:12:1,2008-10-14T13:00:00Z,26.4966,-82.1479,7.5,1111122 
SCCF RECON,ioos:station:SCCF:12:1,2008-10-14T14:00:00Z,26.4966,-82.1479,5.26,1111122 
SCCF RECON,ioos:station:SCCF:12:1,2008-10-14T15:00:00Z,26.4966,-82.1479,5.16,1111122 
SCCF RECON,ioos:station:SCCF:12:1,2008-10-14T16:00:00Z,26.4966,-82.1479,5.35,1111122 
SCCF RECON,ioos:station:SCCF:12:1,2008-10-14T17:00:00Z,26.4966,-82.1479,5.81,1111122 
SCCF RECON,ioos:station:SCCF:12:1,2008-10-14T18:00:00Z,26.4966,-82.1479,7.99,1111122 
SCCF RECON,ioos:station:SCCF:12:1,2008-10-14T19:00:00Z,26.4966,-82.1479,6.89,1111122 
SCCF RECON,ioos:station:SCCF:12:1,2008-10-14T20:00:00Z,26.4966,-82.1479,4.92,1111122 
SCCF RECON,ioos:station:SCCF:12:1,2008-10-14T21:00:00Z,26.4966,-82.1479,8.2,1111122 
SCCF RECON,ioos:station:SCCF:12:1,2008-10-14T22:00:00Z,26.4966,-82.1479,7.69,1111122 
SCCF RECON,ioos:station:SCCF:12:1,2008-10-14T23:00:00Z,26.4966,-82.1479,7.61,1111122 
SCCF RECON,ioos:station:SCCF:12:1,2008-10-15T00:00:00Z,26.4966,-82.1479,9.2,1111122 
SCCF RECON,ioos:station:SCCF:12:1,2008-10-15T01:00:00Z,26.4966,-82.1479,9.03,1111122 
SCCF RECON,ioos:station:SCCF:12:1,2008-10-15T02:00:00Z,26.4966,-82.1479,9.3,1111122 
SCCF RECON,ioos:station:SCCF:12:1,2008-10-15T03:00:00Z,26.4966,-82.1479,8.72,1111122 
SCCF RECON,ioos:station:SCCF:12:1,2008-10-15T04:00:00Z,26.4966,-82.1479,6.31,1111122 
SCCF RECON,ioos:station:SCCF:12:1,2008-10-15T05:00:00Z,26.4966,-82.1479,6.13,1111122 
SCCF RECON,ioos:station:SCCF:12:1,2008-10-15T06:00:00Z,26.4966,-82.1479,7.18,1111122 
SCCF RECON,ioos:station:SCCF:12:1,2008-10-15T07:00:00Z,26.4966,-82.1479,9.01,1111122 
SCCF RECON,ioos:station:SCCF:12:1,2008-10-15T08:00:00Z,26.4966,-82.1479,7.91,1111122 
SCCF RECON,ioos:station:SCCF:12:1,2008-10-15T09:00:00Z,26.4966,-82.1479,6.35,1111122 
SCCF RECON,ioos:station:SCCF:12:1,2008-10-15T10:00:00Z,26.4966,-82.1479,6.47,1111122 
SCCF RECON,ioos:station:SCCF:12:1,2008-10-15T11:00:00Z,26.4966,-82.1479,8.2,1111122 
SCCF RECON,ioos:station:SCCF:12:1,2008-10-15T12:00:00Z,26.4966,-82.1479,7.87,1111122 
SCCF RECON,ioos:station:SCCF:12:1,2008-10-15T13:00:00Z,26.4966,-82.1479,7.33,1111122 
SCCF RECON,ioos:station:SCCF:12:1,2008-10-15T14:00:00Z,26.4966,-82.1479,6.04,1111122 
SCCF RECON,ioos:station:SCCF:12:1,2008-10-15T15:00:00Z,26.4966,-82.1479,4.84,1111122 
SCCF RECON,ioos:station:SCCF:12:1,2008-10-15T16:00:00Z,26.4966,-82.1479,4.77,1111122 
SCCF RECON,ioos:station:SCCF:12:1,2008-10-15T17:00:00Z,26.4966,-82.1479,7.22,1111122 
SCCF RECON,ioos:station:SCCF:12:1,2008-10-15T18:00:00Z,26.4966,-82.1479,8.33,1111122 
SCCF RECON,ioos:station:SCCF:12:1,2008-10-15T19:00:00Z,26.4966,-82.1479,7.76,1111122 
SCCF RECON,ioos:station:SCCF:12:1,2008-10-15T20:00:00Z,26.4966,-82.1479,6.9,1111122 
SCCF RECON,ioos:station:SCCF:12:1,2008-10-15T21:00:00Z,26.4966,-82.1479,7.49,1111122 
SCCF RECON,ioos:station:SCCF:12:1,2008-10-15T22:00:00Z,26.4966,-82.1479,6.59,1111122 
SCCF RECON,ioos:station:SCCF:12:1,2008-10-15T23:00:00Z,26.4966,-82.1479,6.78,1111122 
SCCF RECON,ioos:station:SCCF:12:1,2008-10-16T00:00:00Z,26.4966,-82.1479,7.43,1111122 
SCCF RECON,ioos:station:SCCF:12:1,2008-10-16T01:00:00Z,26.4966,-82.1479,7.33,1111122 
SCCF RECON,ioos:station:SCCF:12:1,2008-10-16T02:00:00Z,26.4966,-82.1479,6.23,1111122 
SCCF RECON,ioos:station:SCCF:12:1,2008-10-16T03:00:00Z,26.4966,-82.1479,7.54,1111122 
SCCF RECON,ioos:station:SCCF:12:1,2008-10-16T04:00:00Z,26.4966,-82.1479,6.9,1111122 
SCCF RECON,ioos:station:SCCF:12:1,2008-10-16T05:00:00Z,26.4966,-82.1479,5.81,1111122 
SCCF RECON,ioos:station:SCCF:12:1,2008-10-16T06:00:00Z,26.4966,-82.1479,5.61,1111122 
SCCF RECON,ioos:station:SCCF:12:1,2008-10-16T07:00:00Z,26.4966,-82.1479,5.74,1111122 
SCCF RECON,ioos:station:SCCF:12:1,2008-10-16T08:00:00Z,26.4966,-82.1479,7.13,1111122 
SCCF RECON,ioos:station:SCCF:12:1,2008-10-16T09:00:00Z,26.4966,-82.1479,11.15,1111122 
SCCF RECON,ioos:station:SCCF:12:1,2008-10-16T10:00:00Z,26.4966,-82.1479,10.76,1111122 
SCCF RECON,ioos:station:SCCF:12:1,2008-10-16T11:00:00Z,26.4966,-82.1479,11.46,1111122 
SCCF RECON,ioos:station:SCCF:12:1,2008-10-16T12:00:00Z,26.4966,-82.1479,7.78,1111122 
SCCF RECON,ioos:station:SCCF:12:1,2008-10-16T13:00:00Z,26.4966,-82.1479,7.12,1111122 
SCCF RECON,ioos:station:SCCF:12:1,2008-10-16T14:00:00Z,26.4966,-82.1479,6.27,1111122 
SCCF RECON,ioos:station:SCCF:12:1,2008-10-16T15:00:00Z,26.4966,-82.1479,5.29,1111122 
SCCF RECON,ioos:station:SCCF:12:1,2008-10-16T16:00:00Z,26.4966,-82.1479,5.14,1111122 
SCCF RECON,ioos:station:SCCF:12:1,2008-10-16T17:00:00Z,26.4966,-82.1479,4.91,1111122 
SCCF RECON,ioos:station:SCCF:12:1,2008-10-16T18:00:00Z,26.4966,-82.1479,5.89,1111122 
SCCF RECON,ioos:station:SCCF:12:1,2008-10-16T19:00:00Z,26.4966,-82.1479,8.69,1111122 
SCCF RECON,ioos:station:SCCF:12:1,2008-10-16T20:00:00Z,26.4966,-82.1479,8.73,1111122 
SCCF RECON,ioos:station:SCCF:12:1,2008-10-16T21:00:00Z,26.4966,-82.1479,7.77,1111122 
SCCF RECON,ioos:station:SCCF:12:1,2008-10-16T22:00:00Z,26.4966,-82.1479,7.33,1111122 
SCCF RECON,ioos:station:SCCF:12:1,2008-10-16T23:00:00Z,26.4966,-82.1479,6.71,1111122 
SCCF RECON,ioos:station:SCCF:12:1,2008-10-17T00:00:00Z,26.4966,-82.1479,6.75,1111122 
SCCF RECON,ioos:station:SCCF:12:1,2008-10-17T01:00:00Z,26.4966,-82.1479,6.26,1111122 
SCCF RECON,ioos:station:SCCF:12:1,2008-10-17T02:00:00Z,26.4966,-82.1479,9.03,1111122 
SCCF RECON,ioos:station:SCCF:12:1,2008-10-17T03:00:00Z,26.4966,-82.1479,11.19,1111122 
SCCF RECON,ioos:station:SCCF:12:1,2008-10-17T04:00:00Z,26.4966,-82.1479,10.23,1111122 
SCCF RECON,ioos:station:SCCF:12:1,2008-10-17T05:00:00Z,26.4966,-82.1479,8.12,1111122 
SCCF RECON,ioos:station:SCCF:12:1,2008-10-17T06:00:00Z,26.4966,-82.1479,6.88,1111122 
SCCF RECON,ioos:station:SCCF:12:1,2008-10-17T07:00:00Z,26.4966,-82.1479,7.52,1111122 
SCCF RECON,ioos:station:SCCF:12:1,2008-10-17T08:00:00Z,26.4966,-82.1479,7.9,1111122 
SCCF RECON,ioos:station:SCCF:12:1,2008-10-17T09:00:00Z,26.4966,-82.1479,7.37,1111122 
SCCF RECON,ioos:station:SCCF:12:1,2008-10-17T10:00:00Z,26.4966,-82.1479,9.32,1111122 
SCCF RECON,ioos:station:SCCF:12:1,2008-10-17T11:00:00Z,26.4966,-82.1479,9.64,1111122 
SCCF RECON,ioos:station:SCCF:12:1,2008-10-17T12:00:00Z,26.4966,-82.1479,6.69,1111122 
SCCF RECON,ioos:station:SCCF:12:1,2008-10-17T13:00:00Z,26.4966,-82.1479,8.36,1111122 
SCCF RECON,ioos:station:SCCF:12:1,2008-10-17T14:00:00Z,26.4966,-82.1479,8.44,1111122 
SCCF RECON,ioos:station:SCCF:12:1,2008-10-17T15:00:00Z,26.4966,-82.1479,8.15,1111122 
SCCF RECON,ioos:station:SCCF:12:1,2008-10-17T16:00:00Z,26.4966,-82.1479,8.33,1111122 
SCCF RECON,ioos:station:SCCF:12:1,2008-10-17T17:00:00Z,26.4966,-82.1479,7.32,1111122 
SCCF RECON,ioos:station:SCCF:12:1,2008-10-17T18:00:00Z,26.4966,-82.1479,8.39,1111122 
SCCF RECON,ioos:station:SCCF:12:1,2008-10-17T19:00:00Z,26.4966,-82.1479,9.33,1111122 
SCCF RECON,ioos:station:SCCF:12:1,2008-10-17T20:00:00Z,26.4966,-82.1479,10.8,1111122 
SCCF RECON,ioos:station:SCCF:12:1,2008-10-17T21:00:00Z,26.4966,-82.1479,8.78,1111122 
SCCF RECON,ioos:station:SCCF:12:1,2008-10-17T22:00:00Z,26.4966,-82.1479,6.62,1111122 
SCCF RECON,ioos:station:SCCF:12:1,2008-10-17T23:00:00Z,26.4966,-82.1479,6.87,1111122 
SCCF RECON,ioos:station:SCCF:12:1,2008-10-18T00:00:00Z,26.4966,-82.1479,7.17,1111122 
SCCF RECON,ioos:station:SCCF:12:1,2008-10-18T01:00:00Z,26.4966,-82.1479,6.21,1111122 
SCCF RECON,ioos:station:SCCF:12:1,2008-10-18T02:00:00Z,26.4966,-82.1479,2.54,1111122 
SCCF RECON,ioos:station:SCCF:12:1,2008-10-18T03:00:00Z,26.4966,-82.1479,1.69,1111122 
SCCF RECON,ioos:station:SCCF:12:1,2008-10-18T04:00:00Z,26.4966,-82.1479,8.38,1111122 
SCCF RECON,ioos:station:SCCF:12:1,2008-10-18T05:00:00Z,26.4966,-82.1479,0.98,1111122 
SCCF RECON,ioos:station:SCCF:12:1,2008-10-18T06:00:00Z,26.4966,-82.1479,11.36,1111122 
SCCF RECON,ioos:station:SCCF:12:1,2008-10-18T07:00:00Z,26.4966,-82.1479,11.35,1111122 
SCCF RECON,ioos:station:SCCF:12:1,2008-10-18T08:00:00Z,26.4966,-82.1479,9.98,1111122 
SCCF RECON,ioos:station:SCCF:12:1,2008-10-18T09:00:00Z,26.4966,-82.1479,5.1,1111122 
SCCF RECON,ioos:station:SCCF:12:1,2008-10-18T10:00:00Z,26.4966,-82.1479,7.43,1111122 
SCCF RECON,ioos:station:SCCF:12:1,2008-10-18T11:00:00Z,26.4966,-82.1479,7.69,1111122 
SCCF RECON,ioos:station:SCCF:12:1,2008-10-18T12:00:00Z,26.4966,-82.1479,7.87,1111122 
SCCF RECON,ioos:station:SCCF:12:1,2008-10-18T13:00:00Z,26.4966,-82.1479,7.9,1111122 
SCCF RECON,ioos:station:SCCF:12:1,2008-10-18T14:00:00Z,26.4966,-82.1479,8.86,1111122 
SCCF RECON,ioos:station:SCCF:12:1,2008-10-18T15:00:00Z,26.4966,-82.1479,8.61,1111122 
SCCF RECON,ioos:station:SCCF:12:1,2008-10-18T16:00:00Z,26.4966,-82.1479,10.2,1111122 
SCCF RECON,ioos:station:SCCF:12:1,2008-10-18T17:00:00Z,26.4966,-82.1479,8.41,1111122 
SCCF RECON,ioos:station:SCCF:12:1,2008-10-18T18:00:00Z,26.4966,-82.1479,7.78,1111122 
SCCF RECON,ioos:station:SCCF:12:1,2008-10-18T19:00:00Z,26.4966,-82.1479,8.25,1111122 
SCCF RECON,ioos:station:SCCF:12:1,2008-10-18T20:00:00Z,26.4966,-82.1479,8.21,1111122 
SCCF RECON,ioos:station:SCCF:12:1,2008-10-18T21:00:00Z,26.4966,-82.1479,8.08,1111122 
SCCF RECON,ioos:station:SCCF:12:1,2008-10-18T22:00:00Z,26.4966,-82.1479,8.57,1111122 
SCCF RECON,ioos:station:SCCF:12:1,2008-10-18T23:00:00Z,26.4966,-82.1479,8.29,1111122 
SCCF RECON,ioos:station:SCCF:12:1,2008-10-19T00:00:00Z,26.4966,-82.1479,8.18,1111122 
SCCF RECON,ioos:station:SCCF:12:1,2008-10-19T01:00:00Z,26.4966,-82.1479,8.0,1111122 
SCCF RECON,ioos:station:SCCF:12:1,2008-10-19T02:00:00Z,26.4966,-82.1479,5.82,1111122 
SCCF RECON,ioos:station:SCCF:12:1,2008-10-19T03:00:00Z,26.4966,-82.1479,1.04,1111122 
SCCF RECON,ioos:station:SCCF:12:1,2008-10-19T04:00:00Z,26.4966,-82.1479,3.05,1111122 
SCCF RECON,ioos:station:SCCF:12:1,2008-10-19T05:00:00Z,26.4966,-82.1479,4.93,1111122 
SCCF RECON,ioos:station:SCCF:12:1,2008-10-19T06:00:00Z,26.4966,-82.1479,7.18,1111122 
SCCF RECON,ioos:station:SCCF:12:1,2008-10-19T07:00:00Z,26.4966,-82.1479,7.26,1111122 
SCCF RECON,ioos:station:SCCF:12:1,2008-10-19T08:00:00Z,26.4966,-82.1479,5.97,1111122 
SCCF RECON,ioos:station:SCCF:12:1,2008-10-19T09:00:00Z,26.4966,-82.1479,5.43,1111122 
SCCF RECON,ioos:station:SCCF:12:1,2008-10-19T10:00:00Z,26.4966,-82.1479,5.46,1111122 
SCCF RECON,ioos:station:SCCF:12:1,2008-10-19T11:00:00Z,26.4966,-82.1479,4.98,1111122 
SCCF RECON,ioos:station:SCCF:12:1,2008-10-19T12:00:00Z,26.4966,-82.1479,4.66,1111122 
SCCF RECON,ioos:station:SCCF:12:1,2008-10-19T13:00:00Z,26.4966,-82.1479,4.91,1111122 
SCCF RECON,ioos:station:SCCF:12:1,2008-10-19T14:00:00Z,26.4966,-82.1479,5.37,1111122 
SCCF RECON,ioos:station:SCCF:12:1,2008-10-19T15:00:00Z,26.4966,-82.1479,6.47,1111122 
SCCF RECON,ioos:station:SCCF:12:1,2008-10-19T16:00:00Z,26.4966,-82.1479,5.76,1111122 
SCCF RECON,ioos:station:SCCF:12:1,2008-10-19T17:00:00Z,26.4966,-82.1479,5.95,1111122 
SCCF RECON,ioos:station:SCCF:12:1,2008-10-19T18:00:00Z,26.4966,-82.1479,6.14,1111122 
SCCF RECON,ioos:station:SCCF:12:1,2008-10-19T19:00:00Z,26.4966,-82.1479,6.23,1111122 
SCCF RECON,ioos:station:SCCF:12:1,2008-10-19T20:00:00Z,26.4966,-82.1479,6.96,1111122 
SCCF RECON,ioos:station:SCCF:12:1,2008-10-19T21:00:00Z,26.4966,-82.1479,6.26,1111122 
SCCF RECON,ioos:station:SCCF:12:1,2008-10-19T22:00:00Z,26.4966,-82.1479,5.94,1111122 
SCCF RECON,ioos:station:SCCF:12:1,2008-10-19T23:00:00Z,26.4966,-82.1479,6.81,1111122 
SCCF RECON,ioos:station:SCCF:12:1,2008-10-20T00:00:00Z,26.4966,-82.1479,7.31,1111122 
SCCF RECON,ioos:station:SCCF:12:1,2008-10-20T01:00:00Z,26.4966,-82.1479,7.14,1111122 
SCCF RECON,ioos:station:SCCF:12:1,2008-10-20T02:00:00Z,26.4966,-82.1479,6.56,1111122 
SCCF RECON,ioos:station:SCCF:12:1,2008-10-20T03:00:00Z,26.4966,-82.1479,5.63,1111122 
SCCF RECON,ioos:station:SCCF:12:1,2008-10-20T04:00:00Z,26.4966,-82.1479,6.07,1111122 
SCCF RECON,ioos:station:SCCF:12:1,2008-10-20T05:00:00Z,26.4966,-82.1479,6.46,1111122 
SCCF RECON,ioos:station:SCCF:12:1,2008-10-20T06:00:00Z,26.4966,-82.1479,1.89,1111122 
SCCF RECON,ioos:station:SCCF:12:1,2008-10-20T07:00:00Z,26.4966,-82.1479,7.19,1111122 
SCCF RECON,ioos:station:SCCF:12:1,2008-10-20T08:00:00Z,26.4966,-82.1479,6.56,1111122 
SCCF RECON,ioos:station:SCCF:12:1,2008-10-20T09:00:00Z,26.4966,-82.1479,5.24,1111122 
SCCF RECON,ioos:station:SCCF:12:1,2008-10-20T10:00:00Z,26.4966,-82.1479,5.31,1111122 
SCCF RECON,ioos:station:SCCF:12:1,2008-10-20T11:00:00Z,26.4966,-82.1479,5.16,1111122 
SCCF RECON,ioos:station:SCCF:12:1,2008-10-20T12:00:00Z,26.4966,-82.1479,5.29,1111122 
SCCF RECON,ioos:station:SCCF:12:1,2008-10-20T13:00:00Z,26.4966,-82.1479,5.38,1111122 
SCCF RECON,ioos:station:SCCF:12:1,2008-10-20T14:00:00Z,26.4966,-82.1479,4.76,1111122 
SCCF RECON,ioos:station:SCCF:12:1,2008-10-20T15:00:00Z,26.4966,-82.1479,4.84,1111122 
SCCF RECON,ioos:station:SCCF:12:1,2008-10-20T16:00:00Z,26.4966,-82.1479,5.67,1111122 
SCCF RECON,ioos:station:SCCF:12:1,2008-10-20T17:00:00Z,26.4966,-82.1479,6.53,1111122 
SCCF RECON,ioos:station:SCCF:12:1,2008-10-20T18:00:00Z,26.4966,-82.1479,6.02,1111122 
SCCF RECON,ioos:station:SCCF:12:1,2008-10-20T19:00:00Z,26.4966,-82.1479,6.29,1111122 
SCCF RECON,ioos:station:SCCF:12:1,2008-10-20T20:00:00Z,26.4966,-82.1479,6.2,1111122 
SCCF RECON,ioos:station:SCCF:12:1,2008-10-20T21:00:00Z,26.4966,-82.1479,6.02,1111122 
SCCF RECON,ioos:station:SCCF:12:1,2008-10-20T22:00:00Z,26.4966,-82.1479,6.13,1111122 
SCCF RECON,ioos:station:SCCF:12:1,2008-10-20T23:00:00Z,26.4966,-82.1479,6.36,1111122 
SCCF RECON,ioos:station:SCCF:12:1,2008-10-21T00:00:00Z,26.4966,-82.1479,5.81,1111122 
SCCF RECON,ioos:station:SCCF:12:1,2008-10-21T01:00:00Z,26.4966,-82.1479,6.23,1111122 
SCCF RECON,ioos:station:SCCF:12:1,2008-10-21T02:00:00Z,26.4966,-82.1479,8.88,1111122 
SCCF RECON,ioos:station:SCCF:12:1,2008-10-21T03:00:00Z,26.4966,-82.1479,5.98,1111122 